Theta_e
301 297 297 301 300 301 301 301 300 298 299 300 298 298 301 301 300 300 300 299 301 303 303 304 304 302 301 301 302 302 303 303 301 301 300 301 301 301 301 302 302 303 304 306
300 297 300 301 301 301 300 298 297 297 298 300 301 302 300 301 302 303 302 302 302 302 301 302 301 300 300 300 300 300 300 299 298 298 298 298 299 299 299 300 301 302 302 302
302 302 299 299 300 298 297 298 299 298 298 301 301 301 302 303 304 302 301 302 302 302 301 299 299 299 300 299 299 298 297 296 295 295 295 295 296 296 298 299 301 301 301 303
300 299 299 299 300 297 296 298 298 299 301 300 302 301 303 304 303 303 302 301 301 300 299 298 299 299 298 298 296 295 294 293 293 292 293 293 293 294 296 297 298 299 300 300
300 298 298 300 299 298 296 297 298 299 301 301 303 299 302 303 304 302 302 302 299 298 297 298 298 298 297 295 293 292 291 290 289 290 291 291 292 293 294 294 296 298 299 300
297 297 299 299 298 297 298 301 298 302 302 293 302 304 303 302 303 304 302 299 298 296 296 297 297 296 294 292 290 289 288 288 288 288 289 289 290 291 292 293 295 297 298 298
298 298 298 296 296 298 301 294 289 292 291 294 301 302 303 301 300 302 301 298 296 295 296 297 295 293 292 289 288 287 287 287 287 287 288 288 289 290 291 292 292 294 297 297
296 298 298 296 295 297 303 293 290 287 290 293 298 299 299 300 300 301 299 296 296 296 296 295 294 291 289 288 287 287 286 286 286 286 286 287 288 289 290 291 292 293 295 297
296 297 295 296 296 298 299 294 296 285 286 292 297 299 298 300 300 300 297 295 296 296 295 294 293 289 287 286 286 286 285 286 286 286 287 287 288 288 290 292 292 293 295 297
295 295 295 296 299 299 299 299 295 289 286 286 293 297 297 300 300 298 295 294 295 296 294 295 291 288 286 285 285 285 285 286 286 286 287 288 289 288 290 292 293 293 295 297
295 294 295 295 295 299 295 293 292 291 293 288 291 295 295 298 299 296 294 293 295 295 294 293 289 286 285 284 284 285 285 285 286 287 288 292 290 290 291 293 293 293 293 296
297 296 295 296 294 296 297 296 293 289 289 294 292 296 297 297 297 295 292 293 295 293 294 291 287 285 284 284 284 285 285 285 286 287 289 293 292 292 293 294 294 294 294 294
296 293 294 300 296 296 295 296 296 285 285 293 290 294 296 296 294 293 292 293 293 292 293 290 287 284 283 283 284 284 285 285 285 286 288 289 290 292 294 295 295 296 297 296
296 294 295 306 303 296 298 298 297 290 287 286 292 293 296 296 291 292 292 291 290 293 292 289 286 284 283 283 284 284 285 285 285 286 286 287 288 288 289 290 291 292 293 295
295 290 291 292 293 294 295 295 298 295 290 292 294 290 293 290 291 290 286 290 291 293 291 288 285 283 282 283 283 284 284 284 285 285 285 286 286 286 287 288 288 289 289 290
295 292 295 292 294 295 296 295 295 296 296 292 295 296 296 296 294 289 288 284 293 291 290 287 284 282 282 283 282 283 283 284 284 285 285 285 285 285 286 287 287 288 289 289
295 292 287 294 291 292 297 295 295 291 288 292 290 293 289 287 288 282 290 289 292 291 289 287 283 282 282 282 282 282 283 283 284 284 284 284 284 285 285 285 286 286 286 287
293 290 287 289 288 297 303 293 294 293 293 290 290 290 290 286 286 287 291 291 291 289 288 287 284 281 281 282 282 282 283 283 283 283 283 284 284 284 284 284 285 285 286 286
292 291 291 295 281 295 301 293 293 293 294 293 293 294 293 292 295 295 292 290 290 289 286 286 283 281 280 282 283 282 283 283 283 282 283 283 283 283 283 283 283 284 284 284
292 289 289 279 288 296 304 294 293 294 293 292 293 293 292 295 293 290 293 289 289 284 285 284 283 282 282 283 283 282 282 282 282 282 282 282 282 282 282 282 283 283 283 283
293 289 288 283 284 290 293 295 294 293 300 294 292 293 293 295 290 287 292 287 283 285 285 284 284 283 283 283 283 282 282 282 282 283 283 283 283 282 282 282 282 282 282 283
292 292 287 282 284 299 292 296 295 297 297 298 295 294 294 293 292 293 291 284 280 280 283 284 284 283 284 284 284 283 282 283 283 283 283 283 283 283 283 282 281 281 281 281
296 295 292 293 295 295 294 296 295 294 295 296 295 293 291 291 293 291 290 286 284 283 285 285 284 284 284 284 284 283 282 284 284 284 284 284 284 284 283 282 281 281 281 281
290 291 294 294 298 295 293 293 293 292 293 293 292 291 290 292 293 292 290 289 287 286 284 285 284 283 283 284 284 284 284 284 285 284 283 282 282 281 282 282 282 281 281 281
293 292 292 291 293 293 295 292 293 293 292 291 291 291 290 290 292 293 292 289 287 286 285 285 284 284 285 285 285 284 284 285 285 283 282 281 281 282 282 282 281 281 281 282
289 292 295 299 295 299 299 296 293 291 290 289 289 289 289 290 291 291 290 289 288 285 285 283 283 283 283 283 284 282 282 282 282 281 281 281 282 282 282 282 283 283 282 281
Wind_Speed
4 6 3 3 1 3 3 2 4 5 2 8 4 10 19 17 6 6 5 6 5 5 7 13 16 21 27 29 29 32 29 27 25 28 27 25 26 31 32 32 36 32 28 31
5 2 4 4 3 2 4 3 4 6 2 3 8 17 13 7 4 1 3 4 7 5 8 9 18 22 26 27 32 32 26 24 24 25 27 28 27 28 34 35 36 36 33 34
5 4 4 3 2 1 3 3 2 4 9 3 7 6 5 4 3 6 7 5 4 4 7 9 16 24 25 27 28 28 28 25 25 27 30 31 31 30 28 30 32 33 30 27
4 2 3 2 1 2 3 4 1 4 5 2 4 4 5 4 5 2 4 6 6 7 7 6 14 21 24 25 26 31 30 29 32 32 29 29 31 29 28 27 30 33 32 31
2 4 2 2 1 2 5 3 4 2 3 3 1 3 7 3 4 5 2 2 7 7 7 10 13 21 25 26 28 30 31 32 32 31 31 29 29 29 28 28 30 33 33 31
3 1 1 1 1 2 5 3 5 3 2 3 4 3 6 4 4 1 1 7 8 8 8 11 17 24 26 26 29 29 30 32 31 30 30 32 33 31 30 28 28 28 29 28
1 1 0 2 1 1 6 5 3 6 4 5 2 1 11 7 6 5 3 8 9 8 8 13 14 17 25 26 27 29 29 33 32 32 32 33 33 32 32 30 28 27 27 27
4 4 2 1 2 2 4 4 5 4 2 5 4 6 6 6 6 5 6 9 6 9 11 13 14 20 25 26 28 28 30 32 34 33 33 33 33 31 31 30 30 30 30 27
4 2 2 4 2 3 3 3 4 6 1 3 4 7 10 8 7 2 7 13 11 12 13 15 15 21 25 26 28 31 32 32 34 33 32 31 31 31 31 29 29 30 30 28
4 3 1 3 2 3 3 4 4 3 1 5 6 6 9 5 8 6 11 13 11 11 14 15 14 22 25 27 30 31 31 32 33 33 33 33 30 28 29 28 29 30 27 29
3 3 1 3 6 7 1 1 4 4 4 5 3 7 8 7 5 4 8 10 9 11 14 15 14 23 26 28 29 30 30 31 31 30 30 26 21 23 25 26 26 30 30 32
2 4 3 7 1 2 3 5 5 4 5 3 3 9 5 6 5 2 8 9 8 11 14 16 14 23 24 27 29 29 29 29 30 30 28 21 17 20 21 22 26 29 32 34
6 0 3 5 3 4 5 5 4 5 3 6 5 7 1 1 7 4 7 9 10 12 15 15 15 14 21 26 28 28 28 28 29 27 23 21 17 13 16 21 24 26 28 29
4 3 6 6 4 4 4 6 8 6 4 4 10 13 25 17 10 14 14 7 9 11 14 14 14 14 21 25 27 27 27 28 28 24 20 18 16 11 7 5 7 11 14 18
4 4 3 4 8 4 6 7 12 12 9 7 9 10 20 11 11 10 5 6 8 12 13 14 14 13 19 23 25 26 26 27 27 24 22 23 23 21 16 15 12 12 12 12
3 2 1 5 2 4 7 14 16 17 14 15 21 26 27 23 7 3 6 6 9 10 11 13 13 13 15 22 24 24 25 26 25 24 24 25 26 25 21 21 24 23 26 24
6 4 3 6 4 7 7 7 15 6 4 11 8 15 1 5 4 5 4 5 6 8 9 11 12 12 18 22 24 23 23 25 25 24 24 25 25 26 26 25 26 27 26 30
5 4 2 4 5 3 5 3 9 9 6 16 7 12 10 8 5 5 5 5 5 5 7 8 9 14 18 22 24 23 22 24 23 25 27 27 27 28 27 27 27 27 27 27
3 4 2 1 3 8 5 4 7 7 8 15 18 19 11 4 1 6 7 7 5 4 4 7 13 13 16 19 20 20 20 22 23 24 25 27 27 26 27 28 28 28 28 25
5 5 3 3 4 6 5 4 4 4 5 8 14 13 6 5 1 5 8 6 6 5 7 9 9 11 14 17 17 17 17 20 21 22 24 26 27 27 28 26 27 24 24 28
4 2 5 3 4 10 10 6 5 4 6 5 9 9 8 6 6 3 7 6 5 5 5 3 4 8 11 12 15 18 17 18 17 19 22 24 25 25 25 25 24 22 23 27
8 10 5 3 1 9 9 5 8 6 3 3 6 7 7 6 6 6 8 6 7 5 7 4 2 6 7 9 13 15 15 12 15 18 20 21 21 21 22 22 19 21 23 25
4 7 7 11 8 1 11 5 8 2 4 4 4 6 7 8 8 9 8 9 8 10 9 6 5 5 7 9 10 12 9 10 14 17 18 18 18 19 20 20 19 22 23 22
5 5 3 2 8 17 13 14 9 6 10 6 6 7 8 8 8 8 7 8 8 12 13 11 9 6 5 6 8 9 7 10 13 16 16 16 18 18 18 17 18 20 20 20
4 9 5 7 10 10 15 14 13 12 12 8 8 8 10 9 7 9 8 8 8 14 16 15 14 10 8 6 6 6 7 6 11 12 12 13 15 17 18 19 17 15 14 12
6 7 6 7 8 5 8 4 5 9 10 12 9 8 8 11 12 9 8 10 14 15 20 18 16 13 12 9 7 7 6 5 6 10 9 9 10 11 12 14 16 14 12 10
Wind_Direction
15 67 98 178 44 125 143 219 257 249 271 349 309 287 288 294 289 260 279 286 254 317 17 31 358 338 330 326 319 314 308 301 298 298 296 291 284 288 288 283 284 282 276 271
34 137 189 189 226 185 217 228 263 275 260 320 293 295 285 287 276 339 163 71 58 29 358 334 339 333 324 317 315 307 303 301 301 298 294 289 286 281 279 280 275 273 270 272
155 173 162 183 116 339 246 193 171 232 321 257 306 294 323 300 74 74 75 100 57 21 342 331 328 317 313 314 310 312 307 302 299 297 292 286 282 278 272 266 265 263 265 268
113 167 180 151 173 153 323 152 84 297 358 281 41 275 303 285 342 111 85 44 3 318 296 272 312 317 316 310 314 310 304 304 301 297 287 283 277 272 268 265 264 264 263 263
170 165 171 170 190 176 241 352 281 196 209 21 296 63 271 310 271 222 189 254 278 266 282 305 310 311 311 311 312 308 304 300 297 291 286 281 275 272 271 268 267 262 260 258
98 339 83 101 342 240 315 30 45 66 69 16 268 101 275 221 210 198 251 316 306 290 286 301 308 316 312 312 308 305 304 299 297 292 285 279 277 273 269 264 258 256 261 260
44 63 316 101 104 354 33 44 348 358 9 221 342 333 251 257 233 173 242 277 281 298 296 309 318 319 318 315 312 309 305 301 298 293 286 277 271 269 263 260 261 263 255 251
145 317 183 82 67 156 46 131 141 236 282 283 306 228 249 222 156 159 224 265 295 308 318 317 318 324 321 315 316 312 307 301 299 293 285 279 273 265 261 257 252 251 252 253
141 216 44 61 59 97 255 50 160 99 38 24 268 286 290 221 202 273 311 353 314 315 321 320 326 327 320 316 314 311 307 303 300 295 289 280 271 262 257 252 249 251 252 252
177 36 178 112 82 13 130 155 71 18 9 302 286 287 244 257 244 328 339 321 301 309 321 330 334 325 322 320 317 316 312 308 303 297 290 281 265 260 255 252 247 242 253 255
132 109 41 72 204 179 23 37 50 117 146 177 293 266 225 230 192 262 300 296 298 317 327 336 333 327 324 322 320 319 318 317 313 311 306 301 266 256 253 252 247 252 249 253
146 140 198 214 299 190 198 168 148 124 241 217 160 268 263 214 172 207 300 291 304 333 339 337 331 328 328 325 325 325 325 326 324 324 323 309 281 265 258 254 252 254 248 254
185 305 1 330 357 352 225 193 136 114 93 203 141 263 305 278 306 305 303 326 341 324 338 339 334 331 331 328 328 328 334 334 334 336 341 354 346 306 273 262 258 259 252 256
123 122 184 204 202 129 198 192 174 133 137 191 228 268 281 289 298 320 328 329 319 336 338 336 337 334 329 331 332 335 339 342 342 345 349 2 8 356 339 296 269 251 236 228
121 198 189 254 245 232 233 211 188 202 192 185 268 223 264 273 290 284 272 322 319 334 339 338 337 332 332 334 337 341 347 348 352 356 3 6 14 24 35 50 65 79 87 102
137 247 141 287 286 204 254 228 216 224 228 255 262 278 274 277 279 284 286 303 333 328 334 332 333 333 334 336 340 343 348 354 1 10 12 22 31 34 39 52 62 76 73 88
154 140 95 269 332 295 291 228 188 191 213 210 200 236 9 279 253 244 254 267 306 318 326 328 331 328 331 336 340 344 351 4 11 17 20 25 34 34 34 49 61 62 61 72
143 118 101 263 348 326 252 139 181 201 202 207 257 260 241 237 249 222 201 245 284 304 314 318 327 327 338 345 354 350 7 15 20 26 28 28 34 42 40 45 52 57 67 72
144 131 114 217 214 295 284 167 160 178 281 205 220 251 258 239 218 265 186 224 250 267 284 303 330 339 349 1 3 357 18 22 24 26 32 35 39 42 47 49 52 57 63 72
88 76 118 90 176 225 238 152 160 131 295 202 195 234 227 152 228 259 186 207 229 245 270 303 342 360 12 13 17 9 18 30 25 29 39 48 49 51 53 53 59 64 66 70
141 101 176 192 238 282 245 154 160 87 240 171 191 217 167 191 202 196 160 211 219 223 261 310 4 14 16 27 36 32 23 21 39 56 63 62 63 61 68 71 70 76 80 82
166 157 184 108 113 273 150 80 175 211 206 204 200 206 197 195 167 185 201 216 207 213 225 200 90 50 41 51 58 50 34 41 64 72 74 74 75 72 74 73 66 71 74 74
228 194 178 192 210 286 203 202 223 162 212 219 204 207 199 187 194 193 208 207 205 201 204 190 162 106 73 66 67 67 56 71 81 80 79 81 84 87 89 87 86 83 86 82
239 186 236 131 230 236 230 254 249 234 231 207 217 202 188 195 193 203 201 198 199 195 196 191 178 161 119 98 86 90 89 92 88 83 78 81 84 80 78 79 83 89 91 92
189 146 200 265 279 286 262 234 238 244 244 232 221 201 206 196 206 200 200 194 197 196 196 193 192 185 173 156 138 121 116 113 101 95 91 89 91 90 86 77 71 75 73 81
186 185 186 231 205 208 255 215 202 223 230 228 208 222 217 199 210 194 203 195 190 194 196 197 203 200 195 187 180 166 154 151 133 122 121 116 111 106 100 98 89 70 72 80